Regional Weather Roundup
Issued by NWS

Home | Current Version | Previous Version | Text Only | Print | Product List | Glossary Off
Versions: 1 2 3 4 5 6 7 8 9 10 11 12 13 14 15 16 17 18 19 20 21 22 23 24 25 26 27 28 29 30 31 32 33 34 35 36 37 38 39 40 41 42 43 44 45 46 47 48 49 50

000
ASUS45 KPSR 261300
RWRAZ

PRELIMINARY ARIZONA REGIONAL HOURLY WEATHER ROUNDUP
NATIONAL WEATHER SERVICE PHOENIX AZ
600 AM MST SAT JUL 26 2014

NOTE: FAIR INDICATES FEW OR NO CLOUDS BELOW 12,000 FEET WITH NO
SIGNIFICANT WEATHER AND/OR OBSTRUCTIONS TO VISIBILITY.

AZZ001>003-036-261400-
NORTHWEST ARIZONA

CITY           SKY/WX    TMP DP  RH WIND       PRES   REMARKS
KINGMAN        MOCLDY    74  59  59 SE12      30.09R
$$

AZZ004>008-015-016-018-261400-
NORTH CENTRAL ARIZONA

CITY           SKY/WX    TMP DP  RH WIND       PRES   REMARKS
GRAND CANYON   CLOUDY    63  48  58 W7        30.32R
WILLIAMS       CLOUDY    63  48  59 CALM      30.38R
PRESCOTT       CLOUDY    66  56  70 NW5       30.22R
FLAGSTAFF      CLOUDY    58  46  64 CALM      30.35R
PAYSON         CLEAR     68  57  68 CALM      30.23R
PAGE           PTCLDY    77  52  41 S3        30.12R
$$

AZZ009>014-017-261400-
NORTHEAST ARIZONA

CITY           SKY/WX    TMP DP  RH WIND       PRES   REMARKS
WINSLOW        NOT AVBL
SAINT JOHNS    CLEAR     65  52  62 CALM      30.26R
WINDOW ROCK    CLEAR     61  43  51 CALM      30.32R
$$

AZZ023-261400-
GREATER PHOENIX AREA

CITY           SKY/WX    TMP DP  RH WIND       PRES   REMARKS
PHOENIX        PTCLDY    83  64  52 E8        29.92R
BUCKEYE          N/A     82  63  51 NE5       29.93R
LUKE AFB       NOT AVBL
DEER VALLEY    PTCLDY    82  62  50 E7        29.95R
SCOTTSDALE     PTCLDY    82  64  54 CALM      29.98R
MESA-FALCON    PTCLDY    81  63  54 SE6       29.95
MESA-GATEWAY   PTCLDY    81  64  57 E6        29.97
CHANDLER       PTCLDY    79  66  65 CALM      29.95
$$

AZZ027-028-261400-
SOUTHWEST MARICOPA COUNTY AND PINAL COUNTY

CITY           SKY/WX    TMP DP  RH WIND       PRES   REMARKS
CASA GRANDE    CLEAR     75  64  69 CALM      29.95F
$$

AZZ503-504-507>509-261400-
SOUTHEAST ARIZONA

CITY           SKY/WX    TMP DP  RH WIND       PRES   REMARKS
TUCSON         CLEAR     74  63  68 S8        30.06S
DAVIS-MONTHAN  CLEAR     73  64  72 SE6       30.05S
RYAN FIELD       N/A     72  64  78 SE5       30.05
NOGALES        CLEAR     66  61  84 S3        30.14S
SIERRA VISTA   CLEAR     69  54  58 W8        30.18S
SAFFORD        CLEAR     75  58  55 W6        30.03R
$$

AZZ020-021-025-026-031-261400-
SOUTHWEST ARIZONA

CITY           SKY/WX    TMP DP  RH WIND       PRES   REMARKS
YUMA           MOCLDY    90  63  40 SE13      29.83S
$$

CAZ031-033-041-043-047-048-061-261400-
SOUTHERN CALIFORNIA

CITY           SKY/WX    TMP DP  RH WIND       PRES   REMARKS
DOWNTOWN L.A.  MOCLDY    68  63  84 CALM      29.92R
L.A. AIRPORT   FOG       66  63  88 W5        29.93R VSB 1/2
SAN DIEGO      CLOUDY    69  64  84 SW3       29.95R
BURBANK        MOCLDY    72  61  68 SE3       29.93R
ONTARIO        MOCLDY    73  63  70 CALM      29.94R
RIVERSIDE      CLEAR     71  63  75 CALM      29.94R
PALM SPRINGS   MOCLDY    84  59  42 CALM      29.89R
EL CENTRO NAS  PTCLDY    86  75  69 SE7       29.81R
IMPERIAL       PTCLDY    87  73  62 SE8       29.81R
BLYTHE         PTCLDY    91  64  40 S7        29.85R
$$

NVZ020-UTZ003-261400-
SOUTHERN NEVADA-UTAH

CITY           SKY/WX    TMP DP  RH WIND       PRES   REMARKS
LAS VEGAS      NOT AVBL
SALT LAKE CITY MOCLDY    68  51  54 CALM      30.09R
$$

NMZ009-TXZ055-261400-
NEW MEXICO-WEST TEXAS

CITY           SKY/WX    TMP DP  RH WIND       PRES   REMARKS
ALBUQUERQUE    PTCLDY    72  45  37 E10       30.17R
EL PASO        CLEAR     78  45  30 CALM      30.06R
$$


........................KEY........................
SKY/WX - SKY CONDITION/WEATHER
TMP    - TEMPERATURE IN FAHRENHEIT
DP     - DEW POINT IN FAHRENHEIT
RH     - RELATIVE HUMIDITY IN PERCENT
WIND   - DIRECTION AND SPEED IN MILES PER HOUR (MPH)
VRB    - VARIABLE WIND DIRECTION
PRES   - MEAN SEA LEVEL PRESSURE IN INCHES OF MERCURY
         F - FALLING PRESSURE   R - RISING PRESSURE
         S - STEADY PRESSURE
VSB    - VISIBILITY IN MILES
HX     - HEAT INDEX IN FAHRENHEIT
WCI    - WIND CHILL INDEX IN FAHRENHEIT
TC     - TEMPERATURE IN CELSIUS WHICH IS ALSO KNOWN AS
         TEMPERATURE IN CENTIGRADE
AFB    - AIR FORCE BASE
         LUKE AFB IS LUKE AIR FORCE BASE
         DAVIS-MONTHAN IS DAVIS-MONTHAN AIR FORCE BASE
NAS    - NAVAL AIR STATION
         EL CENTRO NAS IS EL CENTRO NAVAL AIR STATION
N/A    - NOT AVAILABLE



USA.gov is the U.S. government's official web portal to all federal, state and local government web resources and services.